| time (UTC) | temp C | wind direction | speed KPH | gust KPH | rain 1hr cm | rain 24hr cm | rain mn cm | humidity % | barometer mb |
| 20260504232111 | 13 | 65 | 14.5 | 20.9 | 0.00 | 0.00 | 0.00 | 38 | 1016.3 |
| 20260504231607 | 12 | 322 | 12.9 | 17.7 | 0.00 | 0.00 | 0.00 | 37 | 1016.1 |
| 20260504231103 | 12 | 347 | 22.5 | 27.4 | 0.00 | 0.00 | 0.00 | 37 | 1016.2 |
| 20260504230559 | 13 | 25 | 19.3 | 27.4 | 0.00 | 0.00 | 0.00 | 38 | 1016.3 |
| 20260504230059 | 13 | 9 | 16.1 | 20.9 | 0.00 | 0.00 | 0.00 | 37 | 1016.1 |
| 20260504225555 | 14 | 48 | 9.7 | 17.7 | 0.00 | 0.00 | 0.00 | 37 | 1016.1 |
| 20260504225052 | 13 | 9 | 19.3 | 25.7 | 0.00 | 0.00 | 0.00 | 36 | 1015.9 |
| 20260504224549 | 14 | 11 | 6.4 | 17.7 | 0.00 | 0.00 | 0.00 | 36 | 1016.0 |
| 20260504224046 | 14 | 299 | 12.9 | 24.1 | 0.00 | 0.00 | 0.00 | 36 | 1015.8 |
| 20260504223543 | 14 | 19 | 14.5 | 22.5 | 0.00 | 0.00 | 0.00 | 34 | 1016.0 |
| 20260504223038 | 13 | 2 | 14.5 | 20.9 | 0.00 | 0.00 | 0.00 | 35 | 1015.8 |
| 20260504222536 | 13 | 10 | 11.3 | 14.5 | 0.00 | 0.00 | 0.00 | 35 | 1016.0 |
| 20260504222033 | 14 | 22 | 11.3 | 24.1 | 0.00 | 0.00 | 0.00 | 34 | 1015.6 |
| 20260504221530 | 13 | 330 | 6.4 | 12.9 | 0.00 | 0.00 | 0.00 | 35 | 1015.8 |
| 20260504221027 | 13 | 359 | 9.7 | 16.1 | 0.00 | 0.00 | 0.00 | 32 | 1015.9 |
| 20260504220523 | 13 | 359 | 12.9 | 24.1 | 0.00 | 0.00 | 0.00 | 33 | 1016.1 |
| 20260504220021 | 13 | 4 | 11.3 | 17.7 | 0.00 | 0.00 | 0.00 | 32 | 1015.9 |
| 20260504215517 | 14 | 21 | 6.4 | 12.9 | 0.00 | 0.00 | 0.00 | 32 | 1015.9 |
| 20260504215015 | 13 | 296 | 4.8 | 12.9 | 0.00 | 0.00 | 0.00 | 33 | 1016.0 |
| 20260504214510 | 13 | 23 | 1.6 | 4.8 | 0.00 | 0.00 | 0.00 | 32 | 1015.9 |
| 20260504214006 | 13 | 6 | 6.4 | 14.5 | 0.00 | 0.00 | 0.00 | 31 | 1016.0 |
| 20260504213503 | 14 | 337 | 6.4 | 8.0 | 0.00 | 0.00 | 0.00 | 34 | 1016.3 |
| 20260504213001 | 15 | 12 | 12.9 | 16.1 | 0.00 | 0.00 | 0.00 | 30 | 1016.1 |
| 20260504212456 | 13 | 246 | 8.0 | 9.7 | 0.00 | 0.00 | 0.00 | 33 | 1016.2 |
| 20260504211954 | 13 | 221 | 4.8 | 4.8 | 0.00 | 0.00 | 0.00 | 30 | 1016.2 |
| 20260504211450 | 13 | 310 | 9.7 | 11.3 | 0.00 | 0.00 | 0.00 | 33 | 1016.5 |
| 20260504210948 | 13 | 288 | 3.2 | 11.3 | 0.00 | 0.00 | 0.00 | 31 | 1016.5 |
| 20260504210444 | 13 | 13 | 9.7 | 16.1 | 0.00 | 0.00 | 0.00 | 32 | 1016.5 |
| 20260504205941 | 13 | 1 | 8.0 | 9.7 | 0.00 | 0.00 | 0.00 | 33 | 1016.5 |
| 20260504205439 | 13 | 12 | 8.0 | 12.9 | 0.00 | 0.00 | 0.00 | 32 | 1016.7 |
| 20260504204937 | 13 | 352 | 9.7 | 14.5 | 0.00 | 0.00 | 0.00 | 30 | 1016.3 |
| 20260504204435 | 13 | 24 | 4.8 | 20.9 | 0.00 | 0.00 | 0.00 | 30 | 1016.7 |
| 20260504203934 | 13 | 59 | 9.7 | 24.1 | 0.00 | 0.00 | 0.00 | 32 | 1016.7 |
| 20260504203431 | 13 | 31 | 8.0 | 12.9 | 0.00 | 0.00 | 0.00 | 32 | 1016.7 |
| 20260504202927 | 13 | 305 | 8.0 | 9.7 | 0.00 | 0.00 | 0.00 | 31 | 1016.9 |
| 20260504202424 | 13 | 72 | 6.4 | 9.7 | 0.00 | 0.00 | 0.00 | 32 | 1016.7 |
| 20260504201920 | 13 | 38 | 3.2 | 8.0 | 0.00 | 0.00 | 0.00 | 35 | 1016.9 |
| 20260504201418 | 12 | 164 | 6.4 | 11.3 | 0.00 | 0.00 | 0.00 | 37 | 1016.8 |
| 20260504200915 | 12 | 59 | 8.0 | 12.9 | 0.00 | 0.00 | 0.00 | 33 | 1016.6 |
| 20260504200412 | 13 | 77 | 12.9 | 16.1 | 0.00 | 0.00 | 0.00 | 33 | 1016.9 |
| 20260504195909 | 13 | 322 | 1.6 | 3.2 | 0.00 | 0.00 | 0.00 | 32 | 1016.6 |
| 20260504195404 | 13 | 78 | 4.8 | 9.7 | 0.00 | 0.00 | 0.00 | 33 | 1016.8 |
| 20260504194901 | 12 | 19 | 3.2 | 14.5 | 0.00 | 0.00 | 0.00 | 33 | 1017.0 |
| 20260504194357 | 12 | 325 | 6.4 | 8.0 | 0.00 | 0.00 | 0.00 | 36 | 1017.0 |
| 20260504193853 | 12 | 62 | 3.2 | 9.7 | 0.00 | 0.00 | 0.00 | 35 | 1017.0 |
| 20260504193350 | 12 | 338 | 0.0 | 4.8 | 0.00 | 0.00 | 0.00 | 38 | 1017.0 |
| 20260504192849 | 12 | 327 | 3.2 | 9.7 | 0.00 | 0.00 | 0.00 | 36 | 1016.9 |
| 20260504192347 | 12 | 163 | 3.2 | 8.0 | 0.00 | 0.00 | 0.00 | 37 | 1016.9 |
| 20260504191845 | 12 | 77 | 4.8 | 12.9 | 0.00 | 0.00 | 0.00 | 37 | 1016.9 |
| 20260504191343 | 12 | 105 | 4.8 | 12.9 | 0.00 | 0.00 | 0.00 | 37 | 1017.1 |
| 20260504190838 | 12 | 70 | 6.4 | 9.7 | 0.00 | 0.00 | 0.00 | 38 | 1016.9 |
| 20260504190334 | 12 | 71 | 12.9 | 14.5 | 0.00 | 0.00 | 0.00 | 38 | 1017.2 |
| 20260504185831 | 11 | 65 | 6.4 | 9.7 | 0.00 | 0.00 | 0.00 | 37 | 1017.2 |
| 20260504185327 | 11 | 73 | 12.9 | 16.1 | 0.00 | 0.00 | 0.00 | 36 | 1017.1 |
| 20260504184824 | 11 | 69 | 9.7 | 16.1 | 0.00 | 0.00 | 0.00 | 37 | 1017.2 |
| 20260504184320 | 11 | 61 | 9.7 | 20.9 | 0.00 | 0.00 | 0.00 | 39 | 1016.9 |
| 20260504183815 | 11 | 67 | 8.0 | 14.5 | 0.00 | 0.00 | 0.00 | 41 | 1017.4 |
| 20260504183313 | 11 | 75 | 9.7 | 17.7 | 0.00 | 0.00 | 0.00 | 40 | 1017.5 |
| 20260504182810 | 11 | 65 | 9.7 | 12.9 | 0.00 | 0.00 | 0.00 | 40 | 1017.2 |
| 20260504182308 | 11 | 121 | 8.0 | 11.3 | 0.00 | 0.00 | 0.00 | 39 | 1017.1 |
| 20260504181805 | 11 | 51 | 4.8 | 11.3 | 0.00 | 0.00 | 0.00 | 41 | 1017.2 |
| 20260504181302 | 12 | 350 | 4.8 | 9.7 | 0.00 | 0.00 | 0.00 | 40 | 1017.2 |
| 20260504180801 | 12 | 33 | 4.8 | 4.8 | 0.00 | 0.00 | 0.00 | 39 | 1017.1 |
| 20260504180259 | 12 | 333 | 4.8 | 8.0 | 0.00 | 0.00 | 0.00 | 41 | 1017.2 |
| 20260504175757 | 11 | 306 | 4.8 | 4.8 | 0.00 | 0.00 | 0.00 | 40 | 1017.2 |
| 20260504175253 | 12 | 15 | 4.8 | 9.7 | 0.00 | 0.00 | 0.00 | 40 | 1017.4 |
| 20260504174751 | 12 | 1 | 6.4 | 9.7 | 0.00 | 0.00 | 0.00 | 40 | 1017.2 |
| 20260504174249 | 12 | 13 | 6.4 | 8.0 | 0.00 | 0.00 | 0.00 | 40 | 1017.1 |
| 20260504173745 | 12 | 347 | 4.8 | 9.7 | 0.00 | 0.00 | 0.00 | 41 | 1017.5 |
| 20260504173242 | 12 | 4 | 8.0 | 9.7 | 0.00 | 0.00 | 0.00 | 39 | 1017.1 |
| 20260504172739 | 12 | 324 | 1.6 | 9.7 | 0.00 | 0.00 | 0.00 | 40 | 1017.2 |
| 20260504172236 | 11 | 33 | 0.0 | 4.8 | 0.00 | 0.00 | 0.00 | 41 | 1017.1 |
| 20260504171732 | 12 | 123 | 6.4 | 11.3 | 0.00 | 0.00 | 0.00 | 40 | 1017.1 |
| 20260504171229 | 12 | 119 | 6.4 | 9.7 | 0.00 | 0.00 | 0.00 | 39 | 1017.5 |
| 20260504170726 | 12 | 71 | 8.0 | 11.3 | 0.00 | 0.00 | 0.00 | 40 | 1017.4 |
| 20260504170223 | 12 | 0 | 4.8 | 9.7 | 0.00 | 0.00 | 0.00 | 42 | 1017.4 |
| 20260504160142 | 11 | 287 | 0.0 | 4.8 | 0.00 | 0.00 | 0.00 | 48 | 1017.8 |
| 20260504151109 | 10 | 327 | 4.8 | 9.7 | 0.00 | 0.00 | 0.00 | 47 | 1018.2 |
| 20260504150607 | 9 | 344 | 4.8 | 9.7 | 0.00 | 0.00 | 0.00 | 48 | 1018.0 |
| 20260504150104 | 10 | 286 | 8.0 | 9.7 | 0.00 | 0.00 | 0.00 | 49 | 1018.0 |
| 20260504141032 | 8 | 264 | 0.0 | 3.2 | 0.00 | 0.00 | 0.00 | 58 | 1018.1 |
| 20260504140529 | 7 | 261 | 4.8 | 4.8 | 0.00 | 0.00 | 0.00 | 56 | 1018.2 |
| 20260504130453 | 5 | 191 | 6.4 | 8.0 | 0.00 | 0.00 | 0.00 | 62 | 1017.5 |
| 20260504110340 | 7 | 296 | 1.6 | 3.2 | 0.00 | 0.00 | 0.00 | 52 | 1016.9 |
| 20260504100257 | 7 | 324 | 3.2 | 3.2 | 0.00 | 0.00 | 0.00 | 48 | 1016.5 |
| 20260504081651 | 7 | 281 | 3.2 | 3.2 | 0.00 | 0.00 | 0.00 | 52 | 1013.4 |
| 20260504081147 | 7 | 284 | 3.2 | 3.2 | 0.00 | 0.00 | 0.00 | 53 | 1013.2 |
| 20260504080644 | 7 | 321 | 6.4 | 12.9 | 0.00 | 0.00 | 0.00 | 53 | 1013.1 |
| 20260504080140 | 8 | 312 | 4.8 | 9.7 | 0.00 | 0.00 | 0.00 | 50 | 1012.7 |
| 20260504070108 | 8 | 249 | 1.6 | 3.2 | 0.00 | 0.00 | 0.00 | 48 | 1011.3 |
| 20260504050457 | 12 | 183 | 3.2 | 3.2 | 0.00 | 0.00 | 0.00 | 29 | 1011.6 |
| 20260504045954 | 12 | 187 | 3.2 | 4.8 | 0.00 | 0.00 | 0.00 | 30 | 1011.4 |
| 20260504045449 | 12 | 244 | 0.0 | 0.0 | 0.00 | 0.00 | 0.00 | 28 | 1011.3 |
| 20260504044946 | 13 | 326 | 0.0 | 1.6 | 0.00 | 0.00 | 0.00 | 27 | 1011.5 |
| 20260504044443 | 14 | 298 | 0.0 | 1.6 | 0.00 | 0.00 | 0.00 | 26 | 1011.3 |
| 20260504043941 | 14 | 342 | 3.2 | 4.8 | 0.00 | 0.00 | 0.00 | 25 | 1011.2 |
| 20260504043437 | 13 | 7 | 3.2 | 3.2 | 0.00 | 0.00 | 0.00 | 27 | 1011.4 |
| 20260504042935 | 13 | 68 | 0.0 | 4.8 | 0.00 | 0.00 | 0.00 | 28 | 1011.4 |
| 20260504042431 | 13 | 60 | 1.6 | 3.2 | 0.00 | 0.00 | 0.00 | 30 | 1011.1 |
| 20260504041928 | 13 | 55 | 0.0 | 0.0 | 0.00 | 0.00 | 0.00 | 31 | 1011.2 |
| 20260504041424 | 13 | 37 | 0.0 | 1.6 | 0.00 | 0.00 | 0.00 | 30 | 1011.3 |
| 20260504040920 | 13 | 13 | 1.6 | 1.6 | 0.00 | 0.00 | 0.00 | 30 | 1011.2 |
| 20260504040418 | 13 | 2 | 0.0 | 1.6 | 0.00 | 0.00 | 0.00 | 30 | 1011.0 |
| 20260504035914 | 13 | 331 | 0.0 | 0.0 | 0.00 | 0.00 | 0.00 | 30 | 1011.0 |
| 20260504035412 | 14 | 310 | 0.0 | 0.0 | 0.00 | 0.00 | 0.00 | 28 | 1010.8 |
| 20260504034908 | 15 | 327 | 1.6 | 1.6 | 0.00 | 0.00 | 0.00 | 27 | 1011.0 |
| 20260504034406 | 14 | 325 | 3.2 | 4.8 | 0.00 | 0.00 | 0.00 | 27 | 1011.0 |
| 20260504033903 | 14 | 274 | 0.0 | 0.0 | 0.00 | 0.00 | 0.00 | 29 | 1011.0 |
| 20260504033401 | 16 | 269 | 3.2 | 3.2 | 0.00 | 0.00 | 0.00 | 27 | 1010.7 |
| 20260504032857 | 16 | 312 | 4.8 | 4.8 | 0.00 | 0.00 | 0.00 | 25 | 1010.6 |
| 20260504032354 | 17 | 269 | 6.4 | 8.0 | 0.00 | 0.00 | 0.00 | 23 | 1010.7 |
| 20260504031850 | 17 | 307 | 8.0 | 12.9 | 0.00 | 0.00 | 0.00 | 22 | 1010.5 |
| 20260504031348 | 18 | 317 | 12.9 | 20.9 | 0.00 | 0.00 | 0.00 | 20 | 1010.4 |
| 20260504030844 | 18 | 330 | 12.9 | 17.7 | 0.00 | 0.00 | 0.00 | 21 | 1010.6 |
| 20260504030342 | 17 | 338 | 11.3 | 16.1 | 0.00 | 0.00 | 0.00 | 22 | 1010.3 |
| 20260504025837 | 16 | 352 | 9.7 | 14.5 | 0.00 | 0.00 | 0.00 | 23 | 1010.4 |
| 20260504025335 | 16 | 358 | 9.7 | 12.9 | 0.00 | 0.00 | 0.00 | 25 | 1010.1 |
| 20260504024831 | 16 | 322 | 6.4 | 11.3 | 0.00 | 0.00 | 0.00 | 25 | 1010.1 |
| 20260504024328 | 17 | 17 | 6.4 | 9.7 | 0.00 | 0.00 | 0.00 | 25 | 1010.2 |
| 20260504023824 | 17 | 22 | 6.4 | 9.7 | 0.00 | 0.00 | 0.00 | 25 | 1010.1 |
| 20260504023321 | 17 | 288 | 6.4 | 11.3 | 0.00 | 0.00 | 0.00 | 24 | 1010.2 |
| 20260504022817 | 18 | 354 | 8.0 | 12.9 | 0.00 | 0.00 | 0.00 | 25 | 1010.2 |
| 20260504022314 | 18 | 309 | 8.0 | 12.9 | 0.00 | 0.00 | 0.00 | 24 | 1010.1 |
| 20260504021810 | 18 | 348 | 8.0 | 11.3 | 0.00 | 0.00 | 0.00 | 23 | 1010.1 |
| 20260504021308 | 19 | 329 | 6.4 | 11.3 | 0.00 | 0.00 | 0.00 | 22 | 1009.8 |
| 20260504020805 | 20 | 354 | 8.0 | 12.9 | 0.00 | 0.00 | 0.00 | 21 | 1009.9 |
| 20260504020302 | 20 | 328 | 8.0 | 16.1 | 0.00 | 0.00 | 0.00 | 19 | 1010.2 |
| 20260504015757 | 20 | 309 | 8.0 | 12.9 | 0.00 | 0.00 | 0.00 | 19 | 1010.1 |
| 20260504015254 | 20 | 342 | 8.0 | 12.9 | 0.00 | 0.00 | 0.00 | 19 | 1010.2 |
| 20260504014750 | 20 | 316 | 8.0 | 12.9 | 0.00 | 0.00 | 0.00 | 19 | 1010.2 |
| 20260504014246 | 21 | 305 | 9.7 | 11.3 | 0.00 | 0.00 | 0.00 | 19 | 1010.1 |
| 20260504013744 | 21 | 307 | 8.0 | 14.5 | 0.00 | 0.00 | 0.00 | 18 | 1010.1 |
| 20260504013242 | 21 | 347 | 9.7 | 16.1 | 0.00 | 0.00 | 0.00 | 17 | 1009.9 |
| 20260504012738 | 21 | 316 | 12.9 | 17.7 | 0.00 | 0.00 | 0.00 | 16 | 1010.2 |
| 20260504012236 | 22 | 305 | 12.9 | 17.7 | 0.00 | 0.00 | 0.00 | 16 | 1010.1 |
| 20260504011732 | 22 | 1 | 11.3 | 22.5 | 0.00 | 0.00 | 0.00 | 18 | 1010.1 |
| 20260504011229 | 22 | 317 | 9.7 | 24.1 | 0.00 | 0.00 | 0.00 | 19 | 1010.3 |
| 20260504010726 | 22 | 347 | 14.5 | 16.1 | 0.00 | 0.00 | 0.00 | 19 | 1010.3 |
| 20260504010221 | 22 | 328 | 9.7 | 17.7 | 0.00 | 0.00 | 0.00 | 18 | 1010.2 |
| 20260504005718 | 22 | 327 | 11.3 | 22.5 | 0.00 | 0.00 | 0.00 | 16 | 1010.1 |
| 20260504005215 | 22 | 312 | 11.3 | 16.1 | 0.00 | 0.00 | 0.00 | 17 | 1010.3 |
| 20260504004713 | 22 | 323 | 11.3 | 17.7 | 0.00 | 0.00 | 0.00 | 18 | 1010.3 |
| 20260504004209 | 22 | 306 | 12.9 | 17.7 | 0.00 | 0.00 | 0.00 | 19 | 1010.4 |
| 20260504003707 | 22 | 342 | 12.9 | 16.1 | 0.00 | 0.00 | 0.00 | 19 | 1010.4 |
| 20260504003203 | 22 | 322 | 9.7 | 16.1 | 0.00 | 0.00 | 0.00 | 18 | 1010.6 |
| 20260504002700 | 22 | 355 | 12.9 | 20.9 | 0.00 | 0.00 | 0.00 | 19 | 1010.6 |
| 20260504002157 | 22 | 311 | 17.7 | 25.7 | 0.00 | 0.00 | 0.00 | 17 | 1010.4 |
| 20260504001655 | 23 | 310 | 17.7 | 20.9 | 0.00 | 0.00 | 0.00 | 17 | 1010.3 |
| 20260504001151 | 23 | 303 | 8.0 | 20.9 | 0.00 | 0.00 | 0.00 | 18 | 1010.7 |
| 20260504000648 | 23 | 330 | 14.5 | 20.9 | 0.00 | 0.00 | 0.00 | 17 | 1010.4 |
| 20260504000145 | 23 | 6 | 17.7 | 17.7 | 0.00 | 0.00 | 0.00 | 15 | 1010.7 |
| 20260503235643 | 23 | 350 | 14.5 | 22.5 | 0.00 | 0.00 | 0.00 | 15 | 1010.6 |
| 20260503235140 | 23 | 34 | 16.1 | 20.9 | 0.00 | 0.00 | 0.00 | 15 | 1010.4 |
| 20260503234638 | 23 | 332 | 16.1 | 25.7 | 0.00 | 0.00 | 0.00 | 15 | 1010.6 |
| 20260503234136 | 23 | 338 | 12.9 | 16.1 | 0.00 | 0.00 | 0.00 | 15 | 1010.5 |
| 20260503233632 | 23 | 303 | 12.9 | 16.1 | 0.00 | 0.00 | 0.00 | 16 | 1010.6 |
| 20260503233128 | 23 | 286 | 14.5 | 22.5 | 0.00 | 0.00 | 0.00 | 16 | 1010.6 |
| 20260503232625 | 23 | 321 | 14.5 | 17.7 | 0.00 | 0.00 | 0.00 | 16 | 1010.6 |